Theta_e
307 308 308 308 308 307 306 303 303 304 304 305 308 306 306 306 306 308 311 306 312 311 311 310 310 311 312 317 320 319 323 327 328 327 326 325 325 324 323 321 321 322 329 335 336
306 306 307 307 307 306 304 303 302 303 304 305 305 306 305 307 310 313 306 310 311 309 307 309 311 312 311 314 318 319 319 324 326 326 326 326 326 326 326 326 324 322 323 324 330
307 307 307 307 306 306 303 302 301 302 303 304 305 305 305 310 313 317 313 312 309 306 305 310 311 310 311 312 316 319 321 323 324 324 325 327 327 326 326 326 327 324 324 323 323
309 308 308 307 307 305 302 301 301 301 303 304 304 304 305 313 319 313 309 309 309 306 312 313 311 310 311 312 313 314 316 321 323 324 325 325 325 326 326 326 326 327 325 324 324
310 310 310 309 307 306 303 301 301 301 303 305 305 305 309 317 318 310 311 311 311 312 314 314 312 308 309 311 311 312 313 314 315 317 322 325 326 325 326 326 326 327 326 326 325
308 309 309 308 308 307 306 302 301 301 304 306 306 307 315 319 312 312 312 312 312 313 312 311 310 310 309 309 309 309 310 310 311 312 314 315 316 322 325 325 326 326 326 326 326
309 308 306 306 307 307 308 306 302 301 305 307 307 313 314 311 313 312 312 312 312 313 312 312 311 310 309 309 309 309 309 309 311 313 314 315 316 317 317 320 323 325 326 325 326
304 304 305 308 308 307 305 305 301 301 305 307 307 314 313 316 312 310 310 309 310 311 312 312 312 311 310 309 309 309 308 308 311 310 313 315 315 316 316 316 318 321 325 325 325
302 304 305 308 308 307 304 302 301 302 308 309 312 313 318 313 311 309 309 309 310 310 310 311 310 309 310 309 306 307 308 309 309 309 310 310 310 311 313 314 315 316 320 324 326
301 303 304 305 303 302 302 307 311 313 315 314 314 315 314 313 310 309 309 309 310 309 311 311 306 308 306 307 310 309 308 309 310 311 311 310 310 311 311 312 312 311 312 317 324
301 302 304 304 304 303 304 313 307 311 314 316 318 317 317 310 310 309 311 310 311 310 309 309 308 308 307 307 310 311 311 311 311 311 311 310 310 311 311 310 310 311 312 312 314
302 302 305 305 305 306 307 310 310 311 310 311 313 314 314 310 309 311 310 309 309 308 308 307 308 310 310 311 311 311 311 310 310 311 311 310 310 311 311 310 310 310 310 311 312
302 303 305 305 307 311 310 312 311 312 309 311 312 312 311 309 310 310 310 309 309 309 308 308 308 310 310 311 311 311 311 313 313 313 310 310 310 310 311 310 310 310 309 310 310
301 304 305 306 311 309 312 311 312 311 312 316 309 310 309 308 309 310 310 309 309 309 308 307 308 308 310 311 312 313 314 314 314 314 312 310 311 309 309 309 309 309 308 308 309
301 305 304 306 309 310 312 310 312 312 314 313 310 310 309 308 310 311 310 309 308 308 308 307 308 307 309 314 314 314 313 312 313 313 310 310 307 310 308 309 309 309 308 309 309
303 306 305 310 310 312 312 311 313 318 315 311 310 310 309 309 309 310 310 309 308 307 307 307 308 312 313 313 312 312 312 311 310 308 309 309 308 310 308 308 308 311 312 314 315
305 307 306 307 310 312 311 310 314 319 314 312 311 311 310 310 311 310 309 309 307 309 308 308 308 313 313 312 309 309 311 313 313 311 313 310 310 310 310 310 316 317 316 315 314
308 312 310 311 312 313 310 312 319 313 312 312 312 311 311 311 311 311 310 309 309 308 306 308 308 310 312 311 310 309 310 312 317 317 315 311 312 310 315 316 316 315 314 314 313
310 314 315 315 314 310 308 313 317 312 311 312 312 312 311 312 311 310 309 311 311 309 310 310 311 309 309 309 309 309 309 309 313 311 312 310 310 310 315 316 315 315 314 312 313
309 311 314 311 309 311 310 317 310 309 309 312 313 312 312 311 310 309 310 312 312 310 307 309 310 309 310 309 309 310 310 311 310 315 317 313 312 312 317 317 316 314 313 313 313
311 312 315 310 310 309 312 312 311 312 311 312 312 312 311 311 310 310 311 311 312 312 309 310 310 311 309 309 309 311 312 313 311 312 313 317 313 316 317 315 315 314 315 314 315
306 312 314 311 310 309 312 312 312 313 311 311 311 311 311 311 310 311 312 313 312 312 312 311 310 311 311 310 309 313 313 314 309 312 315 315 313 313 314 313 314 315 314 313 314
304 308 313 312 310 309 310 311 312 312 311 310 310 311 310 310 310 312 312 312 312 313 313 312 310 313 309 308 309 312 311 311 311 311 315 315 312 315 314 314 315 314 315 314 315
305 308 306 304 305 309 309 311 312 312 312 311 310 310 310 310 310 311 312 311 310 310 314 313 310 311 311 311 309 313 313 312 311 316 314 313 313 315 316 316 315 317 316 316 317
301 305 305 305 305 306 309 311 312 312 310 309 309 310 309 310 310 310 310 309 310 311 312 311 312 313 313 314 314 314 314 314 314 312 314 314 317 315 315 315 315 317 318 317 319
302 303 301 303 305 309 309 309 310 309 308 308 309 310 309 308 308 309 310 310 310 309 310 309 312 315 316 314 313 313 313 314 314 314 313 313 313 313 312 312 314 316 318 319 319
305 304 301 303 305 305 305 306 309 307 308 308 307 307 308 308 308 307 306 307 308 310 309 310 310 313 315 313 314 316 316 317 315 314 313 315 312 312 312 313 313 313 314 315 317
Wind_Speed
19 19 19 19 19 19 19 18 17 16 15 15 16 17 19 21 24 15 7 7 4 7 8 9 9 10 7 4 4 0 2 5 7 7 5 14 4 9 7 6 4 6 5 8 11
20 20 20 20 20 20 20 19 18 16 16 16 17 18 19 20 21 10 9 8 8 6 5 5 3 4 3 5 5 5 6 8 5 5 8 14 13 12 14 18 6 5 14 24 14
21 22 22 22 22 22 21 20 18 17 17 17 18 18 18 17 4 4 6 6 8 6 5 5 8 2 4 4 5 4 6 6 9 9 10 17 21 12 11 12 15 2 4 7 7
24 24 24 24 24 24 23 21 19 17 17 18 18 17 15 1 2 3 4 5 4 5 4 4 3 2 3 4 4 6 7 9 12 14 13 16 16 17 12 13 17 13 3 1 6
24 24 25 26 26 25 24 21 19 17 17 18 16 11 3 1 7 6 4 5 5 5 5 3 2 3 3 3 5 6 9 9 10 13 12 16 20 22 24 15 14 21 10 2 5
26 25 26 27 27 26 24 21 18 16 16 14 11 5 1 3 6 5 3 6 9 8 4 4 0 5 1 1 1 4 5 8 6 8 5 8 13 13 23 14 15 15 20 5 5
27 26 27 28 28 27 26 21 16 13 13 10 6 1 2 10 4 7 7 9 11 13 1 4 1 5 3 7 3 5 6 7 4 1 4 6 14 19 10 8 13 16 18 14 7
28 27 31 30 28 27 25 18 13 11 10 6 4 1 6 6 6 3 4 5 7 11 9 8 6 2 2 3 8 6 4 4 4 8 5 4 22 17 8 11 17 13 15 21 12
29 29 31 30 28 26 20 15 12 11 8 3 2 2 8 9 1 1 2 3 8 9 9 11 7 4 2 2 4 3 4 4 6 7 6 4 16 7 8 7 9 11 13 14 21
30 31 32 29 25 22 17 16 6 5 3 2 5 2 7 2 4 3 4 7 2 5 5 2 3 2 2 3 3 5 5 2 2 5 2 9 15 8 6 8 7 8 8 12 14
32 31 31 26 20 19 21 3 5 3 2 6 4 3 10 4 0 3 4 1 2 4 2 2 4 6 10 8 10 6 5 4 3 6 4 10 15 14 7 7 8 9 13 13 14
32 32 28 21 17 17 11 2 2 4 6 8 12 14 23 5 1 6 9 2 4 4 6 7 3 5 6 5 3 6 6 6 6 6 6 7 21 18 7 6 7 9 12 12 15
34 30 25 17 17 7 7 10 5 10 2 7 5 5 5 7 4 6 4 2 0 3 4 2 8 6 6 3 6 5 5 7 9 11 7 5 18 16 15 8 7 8 10 14 11
36 27 22 15 3 14 3 21 8 4 3 4 4 3 4 4 3 10 8 4 0 4 5 5 4 4 6 3 4 3 6 8 10 8 4 5 16 12 10 12 12 13 13 13 16
35 23 14 7 8 6 16 21 16 3 4 6 3 4 3 4 2 2 12 3 6 6 1 8 5 7 3 3 2 5 6 4 8 10 3 5 4 10 8 17 17 17 12 12 11
27 17 8 6 8 11 20 21 5 4 3 2 2 3 2 4 6 4 6 3 4 5 4 9 3 3 5 3 2 1 3 5 4 2 4 4 6 18 5 12 6 8 13 13 16
20 11 4 4 4 14 19 4 4 4 8 8 6 7 6 4 5 7 5 3 4 1 3 3 1 2 2 3 6 6 4 4 5 3 5 5 8 13 9 9 3 6 11 14 13
16 6 5 6 6 12 7 4 7 5 7 6 10 12 3 5 4 4 4 4 10 4 1 1 5 4 2 1 5 4 5 4 4 3 7 12 7 6 2 5 2 5 7 10 13
13 5 6 7 5 6 5 5 2 5 5 6 8 5 6 12 8 8 7 4 3 5 2 3 3 9 6 4 2 3 4 6 4 6 7 5 7 7 3 6 5 9 10 11 13
11 7 5 1 6 5 5 1 2 2 1 4 4 4 4 6 5 6 4 3 2 3 1 3 5 4 3 6 3 2 3 3 3 3 5 4 6 8 6 9 12 17 14 16 16
5 4 3 3 3 5 2 4 2 5 5 2 3 2 4 3 3 4 3 7 4 4 5 2 2 5 4 2 4 4 1 3 2 4 4 4 5 4 6 4 10 14 14 17 17
5 3 4 3 4 1 2 6 6 10 4 2 2 2 1 3 4 3 3 2 4 3 2 1 2 4 8 15 9 6 6 4 3 4 4 4 10 5 4 6 6 11 12 16 18
2 3 3 2 2 3 5 6 2 6 3 4 3 4 3 3 2 2 3 4 3 2 2 2 1 4 7 4 4 3 3 5 3 2 8 5 7 2 5 6 6 8 13 16 19
2 4 4 4 0 2 5 5 5 6 5 4 3 4 3 3 3 4 3 4 4 2 6 7 5 7 6 8 5 14 17 14 9 5 9 12 16 6 10 12 7 7 8 14 16
3 2 0 4 4 6 2 4 9 5 4 2 3 2 2 3 4 5 3 6 7 8 5 7 6 6 12 16 16 19 21 18 16 16 9 15 7 9 8 11 10 7 5 11 16
2 3 4 3 5 5 4 3 4 7 5 6 4 6 2 4 7 12 6 3 6 5 5 2 5 2 15 14 16 18 17 15 16 16 5 7 11 5 7 10 12 10 8 13 14
6 5 3 4 4 3 1 5 8 9 4 4 4 5 5 6 7 8 8 8 10 8 5 5 3 4 16 5 12 10 4 1 2 6 5 7 4 5 7 12 11 14 13 13 16
Wind_Direction
343 340 339 337 335 334 331 329 330 329 327 327 328 331 332 329 321 316 237 227 216 237 273 299 291 258 265 264 223 181 104 230 231 234 276 299 323 306 288 308 336 320 3 341 163
343 340 337 335 333 331 328 327 326 324 322 325 327 329 329 328 320 262 236 215 223 240 264 254 261 8 230 215 215 177 185 219 235 277 289 290 305 327 339 322 315 55 349 0 34
344 340 337 334 332 330 327 325 324 324 324 324 323 325 329 327 301 258 186 191 209 225 242 245 266 230 221 234 229 218 236 256 269 283 286 285 292 304 299 300 299 317 334 354 354
344 341 338 333 330 327 325 322 320 321 322 323 321 325 331 284 112 228 145 161 176 205 238 223 222 193 215 227 230 257 255 242 253 255 261 270 284 289 274 260 289 296 223 158 329
341 338 336 332 329 325 322 317 315 316 322 326 323 329 353 270 252 189 155 180 217 238 232 211 227 202 210 237 310 251 278 270 259 261 257 263 269 274 278 276 281 294 294 218 314
339 337 335 333 327 324 318 313 308 312 324 332 337 341 200 284 188 163 143 219 232 218 274 196 92 250 201 282 159 294 289 277 275 282 290 269 272 279 275 279 275 283 293 282 234
337 335 335 332 328 322 317 308 302 307 324 336 345 356 269 239 174 218 215 253 258 209 251 283 100 61 4 335 332 299 310 319 298 264 265 281 276 257 283 312 280 267 271 270 230
342 343 340 330 326 322 316 308 304 305 314 326 339 196 252 259 294 263 221 297 23 216 214 247 241 102 133 307 341 338 345 320 342 358 275 156 269 275 264 270 279 285 268 274 253
345 342 339 332 329 326 324 323 310 295 305 285 268 174 275 327 170 79 286 280 342 323 292 283 141 174 348 106 0 300 252 264 314 250 253 205 275 316 329 295 289 285 276 259 268
347 342 340 337 338 339 339 327 318 311 92 120 261 282 278 228 158 258 228 280 297 305 334 244 82 119 15 89 236 243 260 275 265 337 1 295 288 289 304 312 310 318 325 309 281
345 343 339 339 346 345 347 32 10 11 115 205 207 250 292 79 70 267 139 290 323 50 295 294 107 225 242 214 237 259 247 281 254 265 292 284 280 284 292 315 315 304 304 299 295
347 342 337 332 340 333 338 359 268 284 311 251 240 253 258 255 256 301 201 110 25 309 335 10 295 277 257 289 321 325 313 302 270 283 294 288 288 289 285 271 281 287 297 299 297
346 343 337 328 332 12 328 290 358 6 10 297 214 211 222 146 218 259 140 107 100 338 340 181 258 302 328 349 6 1 354 343 321 324 313 295 287 297 296 283 279 283 280 290 286
347 346 340 333 20 341 310 345 339 342 54 270 176 238 159 157 259 237 182 139 116 247 271 258 261 330 309 343 40 333 340 327 324 330 276 273 282 280 300 303 301 294 287 283 289
348 350 347 339 321 339 335 341 336 39 59 187 164 198 181 177 283 176 156 109 192 226 157 255 268 294 292 166 129 229 319 292 285 276 280 257 258 277 309 293 292 293 295 299 297
349 352 358 350 328 350 340 334 10 38 63 104 87 337 18 240 258 154 184 200 207 214 218 240 255 134 186 248 220 325 334 319 300 189 230 197 210 276 252 261 288 315 331 353 342
351 349 320 288 285 338 336 19 47 64 342 4 2 336 317 281 301 164 199 228 225 23 297 329 353 173 110 335 345 58 44 344 331 349 238 241 269 264 295 325 50 334 325 329 329
348 345 306 279 315 326 341 54 65 18 24 17 337 313 338 12 13 358 354 305 17 83 99 190 335 23 63 244 240 235 175 166 261 291 303 304 257 256 90 85 289 289 277 304 317
356 336 313 312 303 313 66 51 25 6 30 346 336 20 358 4 7 16 11 42 34 48 61 7 258 320 295 3 79 263 221 218 242 270 265 242 283 292 319 309 295 285 308 314 316
345 332 289 295 349 42 68 292 121 19 14 29 43 20 336 337 20 28 321 80 48 84 101 352 294 244 310 324 297 51 289 13 15 289 276 272 283 262 297 295 328 320 329 315 316
12 19 312 339 322 46 112 247 333 347 106 149 237 258 287 304 351 342 276 315 74 7 79 76 142 284 352 260 285 347 341 65 129 166 220 300 248 227 271 312 296 308 319 321 318
2 33 358 290 38 28 345 310 307 311 89 53 1 283 334 326 301 261 252 322 60 65 34 156 199 277 261 293 265 170 200 171 133 260 243 257 276 313 185 256 295 314 319 325 313
2 269 20 334 57 331 304 298 262 331 246 184 200 236 247 254 313 265 294 283 97 50 220 179 304 317 332 357 358 211 222 212 220 142 225 240 265 357 268 268 233 276 340 331 322
33 3 330 34 319 70 354 289 320 303 351 37 354 344 351 297 234 268 256 279 287 248 233 159 195 191 220 250 243 283 278 275 245 235 250 242 277 288 303 290 255 266 311 342 315
33 327 307 309 324 326 239 271 299 322 11 68 307 8 74 316 310 264 304 317 310 279 217 157 228 220 246 259 272 274 278 272 259 255 241 275 234 255 261 268 278 256 298 318 308
62 30 350 283 290 312 311 339 315 348 317 313 314 284 209 213 219 275 257 223 230 292 200 203 257 254 286 271 262 283 282 268 259 264 279 269 274 227 281 299 306 291 303 304 297
9 340 103 277 326 349 225 343 308 318 285 53 325 322 310 305 293 264 221 220 232 217 223 188 213 272 270 330 307 284 262 142 331 291 266 267 244 269 278 289 306 304 296 296 295